Utilitzem cookies pròpies i de tercers per millorar la seva experiència i els nostres serveis,analitzant la navegació en el nostre Lloc Web. Si continua navegant, vostè està acceptant el seu ús. Podeu obtenir més informació a la nostra Política de cookies. OK

En viu: El Trail 55 Km

El Trail 55 Km

Resultats provisionals

Potser que algun punt de control no tingui connexió a internet o la tingui deficient.

En aquest cas els passos no es podran visualitzar en directe i aniran apareixent a mesura que siguin transmesos des dels punts de control.

BELLMUNT - Intermig


16
Pendents

262
Han passat

Homes

# - Posició P.C. - Participant Temps Dorsal

1 - 1 - MARTI LAZARO CORDERO 04:26:33 1318

2 - 2 - LLUíS RUIZ OLLER 04:26:35 1331

3 - 3 - NIL GAJA BALLARÓ 04:55:41 1080

4 - 4 - ALBERT GARCIA COBOS 05:07:39 1287

5 - 5 - DANI AGUIRRE ARDANAZ 05:08:01 1227

6 - 6 - JORDI DELGADO SANGLAS 05:09:29 1062

7 - 7 - GUILLEM ALBA GARCIA 05:11:43 1105

8 - 8 - DAVID TERUEL HUGUET 05:14:23 1327

9 - 9 - ARNAU AMADÓ BASSOLS 05:19:32 1165

10 - 10 - JESúS ÁLVAREZ MORALES 05:23:39 1245

11 - 11 - JOEL VALLDOSERA SáNCHEZ 05:25:34 1044

12 - 12 - DAVID SEREROLS TORRAS 05:33:24 1017

13 - 13 - DANI FLORES HERNANDEZ 05:33:36 1306

14 - 14 - PAU CASTANYER BENAVENT 05:37:53 1161

15 - 15 - ABEL BELTRAN CAMPILLO 05:38:12 1211

16 - 16 - ALBERT SÁNCHEZ CRIBALLÉS 05:40:33 1134

17 - 18 - DANIEL ALMONACID VICTORIANO 05:47:54 1015

18 - 19 - NAïM BAULENAS SANGLAS 05:48:12 1202

19 - 20 - ERIC NAVARRO NAJAR 05:48:49 1006

20 - 21 - JORDI TORRENT PARCET 05:48:50 1210

21 - 22 - MIQUEL AULADELL DORDAL 05:52:14 1304

22 - 23 - VICENS RIOS GALLART 05:53:42 1022

23 - 24 - CRISTIAN TERINGUER CANELA 05:55:06 1157

24 - 26 - CRISTIAN LOPEZ REYES 05:59:34 1056

25 - 27 - AITOR LóPEZ ALCAY 05:59:55 1335

26 - 29 - UNAI ARTETA CASTELAR 06:00:27 1321

27 - 30 - FRANCESC ROIG 06:01:15 1051

28 - 31 - OSCAR PEREZ MILLAN 06:01:26 1186

29 - 32 - JORDI ALEMANY QUINTANA 06:05:04 1336

30 - 33 - XAVI BERNAL BAENA 06:06:58 1252

31 - 34 - GERARD CIURANS TIRADO-MIGUEIZ 06:07:01 1226

32 - 35 - JORDI PLANS CONTEL 06:11:17 1117

33 - 36 - ENRIC SERRATOSA SOLà 06:14:32 1236

34 - 37 - JOSEP ZANUY 06:15:12 1187

35 - 38 - CARLES VIDAL BARRERA 06:15:57 1103

36 - 39 - JOSEP MORENO CARRERA 06:16:16 1145

37 - 40 - GERARD SALARICH CROSAS 06:17:24 1146

38 - 41 - GUILLEM PADROSA DANéS 06:17:49 1322

39 - 42 - MARIUS GAMISSANS SALA 06:17:52 1147

40 - 43 - ALBERT FABRé LLORENS 06:21:05 1191

41 - 44 - XAVIER MIRANDA MIRANDA BEGUE 06:21:06 1083

42 - 45 - RICARD CASTAñO SOLER 06:21:07 1267

43 - 46 - CARLES AMETLLER SULA 06:22:03 1128

44 - 47 - ANTONI BADIA MUNIENTE 06:22:22 1312

45 - 48 - CAIN CHRISTOFOROU 06:23:30 1201

46 - 49 - MIQUEL MUZáS ESPUNY 06:23:33 1205

47 - 50 - ORIOL SALA PUIGDERRAJOLS 06:23:37 1119

48 - 51 - JORDI CASANOVAS SABARIEGO 06:25:15 1269

49 - 52 - RAMON CASERRAS GUERRERO 06:26:00 1153

50 - 55 - FERNANDO BARCOS NAVARRO 06:32:16 1172

51 - 56 - SERGIO LEAL LOPEZ 06:32:20 1276

52 - 57 - RAMóN BORREGUERO SANCHEZ 06:32:20 1230

53 - 58 - JAVI FERNANDEZ NAVARRO 06:32:28 1159

54 - 59 - ROGER PEIX SOLER 06:34:39 1033

55 - 60 - GUILLEM LOPEZ FAGEDA 06:35:11 1148

56 - 61 - FRANCESC CAZORLA MUñOZ 06:35:13 1324

57 - 62 - JOSEP GARCIA BORRAS 06:35:16 1093

58 - 63 - RUBEN GARCIA CALDERON 06:35:55 1176

59 - 64 - RAüL JORGE ANGUITA 06:35:57 1254

60 - 65 - LLORENç CAñíS 06:36:12 1213

61 - 66 - ALEIX MORERA ROCA 06:36:30 1288

62 - 67 - DAVID MUñOZ CASELLAS 06:41:32 1319

63 - 69 - JOAN AGUSTí NúñEZ GENESTóS 06:43:32 1079

64 - 70 - ALBERT ARUMí CATALà 06:44:08 1013

65 - 71 - ANGEL ARUMI JIMENEZ 06:44:10 1325

66 - 72 - ISMAEL ALZINA CARRERAS 06:44:48 1299

67 - 73 - ALBERT TORRENS VIVES 06:44:53 1296

68 - 75 - ROGER GIL BERTRAN 06:47:54 1231

69 - 76 - OSCAR MORAL HIDALGO 06:48:00 1257

70 - 78 - NIS MATEU BOIXADERAS 06:52:01 1139

71 - 80 - ISIDRO GIL PÉREZ 06:52:50 1320

72 - 81 - JUAN MIGUEL DE LA TORRE MORALES 06:53:43 1216

73 - 83 - GUIFRÉ PORQUERES PLANELLES 06:54:29 1194

74 - 85 - IGNASI SERRANO COLL 06:55:06 1323

75 - 86 - ANGEL BOTELLO ARMENGOL 06:56:03 1032

76 - 87 - SERGIO ASENSIO ROMERO 06:58:06 1184

77 - 88 - DANIEL CARBONELL MERINO 07:00:15 1007

78 - 89 - JUAN MARQUEZ LOPEZ 07:01:03 1198

79 - 90 - ANDREU LóPEZ ANADóN 07:01:14 1009

80 - 91 - RAFAEL LOPéZ RECHE 07:01:15 1242

81 - 94 - DIEGO BARROSO BERMEJO 07:01:46 1059

82 - 95 - ROBERT PLANAS COLL 07:01:48 1049

83 - 96 - BERNAT GORDUN QUILES 07:02:03 1310

84 - 97 - JOSEP BAROT CASANY 07:02:05 1021

85 - 98 - GENíS BAYéS COSTA 07:02:06 1109

86 - 99 - PAU SERRA ESCANDELL 07:02:08 1098

87 - 100 - YAN MAURAKH - 07:02:18 1328

88 - 101 - JOSEP FARRERA SINFREU 07:02:42 1270

89 - 102 - PEDRO MOLINA RODRIGUEZ 07:03:23 1087

90 - 103 - DAVID MIGUEL SUAREZ 07:03:29 1197

91 - 104 - JORDI CASACUBERTA JIMENEZ 07:03:32 1282

92 - 105 - DANIEL RODRíGUEZ PEREZ 07:04:31 1010

93 - 106 - DAVID GAZQUEZ GARCIA 07:04:41 1150

94 - 107 - DAVID LEIVA ROLDAN 07:05:17 1075

95 - 108 - AURELIAN OANCEA . 07:07:54 1333

96 - 109 - JONATHAN ANTONI CIERCO 07:08:53 1041

97 - 110 - ALEJANDRO AZORÍN RODRÍGUEZ 07:09:40 1100

98 - 111 - JOSE PEREZ GONZALEZ 07:10:03 1048

99 - 113 - ENRIC COROMINAS I BOSCH 07:11:00 1046

100 - 114 - JOSEP A JARAMILLO CALDERóN 07:11:43 1188

101 - 115 - JULIA FRANCH NADAL 07:12:56 1268

102 - 116 - MOISES OLMEDA 07:12:58 1008

103 - 118 - MARCEL BUENO BRUGUES 07:13:04 1133

104 - 119 - NIL GRI LLEBOT 07:13:05 1045

105 - 120 - XAVIER FABRE HEREDIA 07:13:08 1222

106 - 121 - ÒSCAR GONZàLEZ GONZàLEZ 07:22:26 1027

107 - 122 - JUAN MANZANO RUBIO 07:22:29 1131

108 - 123 - DAVID DE LA COBA ALQUEZAR 07:22:31 1285

109 - 124 - ROBERTO BAÑOS GONZALEZ 07:22:32 1180

110 - 125 - DAVID VILCHEZ MORENO 07:22:42 1281

111 - 126 - JAUME SOBRERROCA ALSINA 07:23:18 1235

112 - 127 - TONI MARQUEZ JIMENEZ 07:23:20 1039

113 - 128 - ALEJANDRO RUBIO GONZALEZ 07:23:47 1293

114 - 129 - ORIOL FERNANDEZ HOSPITAL 07:23:50 1089

115 - 130 - KRLOS MARTíNEZ GUERRA 07:25:08 1149

116 - 131 - ANTONIO MORALES MARTINEZ 07:26:00 1138

117 - 132 - DIEGO CARRETERO RODRIGUEZ 07:26:10 1301

118 - 134 - JUAN ANTONIO VIÑUELA GONZALEZ 07:27:30 1206

119 - 135 - OLIVER GALLEGO NAJAR 07:27:38 1014

120 - 136 - LLORENç REIXACH CRUZ 07:27:49 1016

121 - 137 - CRISTóBAL M. MACARRO CANO 07:28:00 1011

122 - 138 - TONI SALAS PALLICER 07:28:16 1248

123 - 139 - FERRAN MELERO VIGARA 07:28:17 1137

124 - 140 - PERE LOPEZ SORIANOO 07:28:21 1053

125 - 141 - ISIDRE ESCAYOLA GARCIA DEL PRADO 07:31:20 1067

126 - 142 - XEVI PALLAROLS PALLàS 07:31:34 1292

127 - 143 - ADRIA NOTARIO BARDAJI 07:33:27 1256

128 - 144 - JORDI DE LA VEGA ARUS 07:35:28 1279

129 - 145 - VICTOR RODRIGUEZ BARCONES 07:35:29 1121

130 - 146 - ROGER BATALLA CARABASSA 07:36:10 1122

131 - 147 - ALBERT MESTRES SUGRAñES 07:37:38 1004

132 - 148 - TONI PORRAS JIMENEZ 07:38:10 1208

133 - 149 - ALBERT SALA SIDERA 07:38:53 1063

134 - 150 - JOAN MARESMA NUALART 07:39:16 1012

135 - 151 - QUIM MENDIETA SALA-BELLSOLELL 07:39:17 1156

136 - 152 - JAUME CORELLA VIVó 07:39:18 1171

137 - 153 - JOAN CALLEJON BOQUERA 07:39:29 1240

138 - 154 - MARC CASANOVA BELLO 07:39:32 1054

139 - 155 - ABEL CANALDA 07:40:52 1104

140 - 156 - DAVID CARRERAS GONZáLEZ 07:41:06 1108

141 - 157 - MARCEL TORT FERNANDEZ 07:41:13 1141

142 - 158 - JUAN CARLOS ABELEDO SANCHEZ 07:41:35 1167

143 - 159 - PLACI ABELEDO SANCHEZ 07:42:05 1160

144 - 160 - XAVIER PUIG ESCUDERO 07:42:41 1086

145 - 161 - SALVATORE MESEGUE VALERO 07:42:44 1291

146 - 162 - JUAN ANTONIO CAZORLA ZAMBRANA 07:43:07 1289

147 - 163 - GUIDO CANCARINI CAPPONI 07:43:12 1136

148 - 164 - SERGI ALSINA LLORENTE 07:43:29 1060

149 - 165 - ANTON VILARDELL AGULLó 07:43:43 1028

150 - 166 - PEPE PORRAS JIMENEZ 07:43:47 1219

151 - 167 - STEFAN GABRIEL DEL BRIO DI NOTO 07:43:52 1221

152 - 168 - JOSEP CALI CABEZA 07:44:04 1085

153 - 169 - JORDI TOLDOS BUENO 07:46:16 1082

154 - 170 - DANIEL BRUN RAMIREZ 07:47:23 1018

155 - 171 - TOMAS LOPEZ ZORNOZA 07:47:24 1154

156 - 173 - JOSE ANGEL REVELLES NúñEZ 07:48:07 1042

157 - 174 - XAVIER SOLER I BOSCH 07:48:11 1120

158 - 175 - TONI MAESTRE GARCIA 07:48:21 1050

159 - 176 - ALEIX DANOT CUCH 07:48:23 1260

160 - 177 - MARC CASES 07:48:26 1261

161 - 178 - XAVIER CAMPS BAGET 07:48:36 1253

162 - 179 - ISMAEL COBO PIMENTEL 07:51:20 1095

163 - 180 - JAUME BARRIACH GAYA 07:51:25 1174

164 - 181 - AITOR MATA MARTÍNEZ 07:52:00 1088

165 - 182 - JORGE FERNANDEZ LIROLA 07:52:04 1061

166 - 183 - F. XAVIER FABREGAT CASAL 07:55:12 1127

167 - 184 - CARLOS CARRASCOSA TOMAS 07:55:14 1243

168 - 185 - ARNAU GRANé MASFRET 07:55:30 1265

169 - 186 - JAN OLIVERES GONZALEZ 07:56:56 1334

170 - 187 - JOAN BULDó I POLLS 07:57:30 1166

171 - 188 - JAUME FABREGAT GOU 08:01:02 1196

172 - 189 - DAVID DIAZ MAYOR 08:01:34 1030

173 - 191 - DAVID GARCIA FERNANDEZ 08:01:47 1020

174 - 192 - IGNASI BASSAS BUJ 08:01:50 1129

175 - 193 - PERE SEGURA GARSABALL 08:03:01 1273

176 - 194 - SERGI CAPDEVILA NORTES 08:04:43 1132

177 - 195 - MIQUEL RAMOS LOPEZ 08:05:06 1173

178 - 196 - GERARD GARCIA MONTSERRATE 08:07:13 1263

179 - 197 - BRIAN MEDINA GRANADOS 08:07:15 1262

180 - 198 - XAVI DÍAZ VENDRELL 08:08:32 1170

181 - 200 - PACO GARCIA RUIZ 08:08:42 1247

182 - 201 - RAFO IGLESIAS LOBO 08:08:47 1305

183 - 202 - JAVITO RUIZ 08:08:53 1314

184 - 203 - LLUIS RIBES CASTRO 08:11:19 1123

185 - 204 - ALBERT COLS VAZQUEZ 08:11:21 1307

186 - 205 - JULIO LLORENTE CASTILLO 08:12:46 1084

187 - 206 - PERE FRANCH ANTONELL 08:13:32 1055

188 - 207 - SERGI GALLEGO ARJONA 08:17:40 1215

189 - 208 - TONI DONIGA 08:18:34 1233

190 - 209 - DAVID DONIGA VERA 08:18:44 1217

191 - 210 - JORDI FRANCH ANTONELL 08:19:51 1068

192 - 211 - ENRIC BLANCAFORT MUMBRIU 08:19:53 1200

193 - 212 - MOISES PLUJA BLANCH 08:19:57 1283

194 - 214 - TONI RUIZ JOVER 08:20:36 1040

195 - 215 - DAVID ROS HOMS 08:21:26 1207

196 - 216 - VICTOR RUBIA GARCíA 08:31:33 1143

197 - 217 - JORDI ANGLADA CASAS 08:34:09 1255

198 - 218 - PEDRO MIGUEL PERELLó PALLISER 08:36:09 1295

199 - 219 - RAUL JIMENEZ RIVERO 08:36:33 1107

200 - 220 - ADAM CARBONELL VISO 08:36:36 1244

201 - 221 - DAVID LEO HEREDIA 08:36:39 1106

202 - 222 - JOSEP PERELLO 08:38:54 1309

203 - 223 - EDUARD CAPDEVILA ROMEU 08:38:55 1057

204 - 224 - JORDI RIU MUDARRA 08:39:01 1019

205 - 225 - GONZALO VELASCO REINA 08:42:25 1274

206 - 226 - MARC MOLINE RODRIGUEZ 08:42:31 1259

207 - 227 - TONI AMBLAS MOLINA 08:42:35 1294

208 - 228 - XEVI HERNANDEZ CLOTA 08:42:36 1115

209 - 229 - ROGER GARCIA SUBIRANA 08:43:07 1258

210 - 230 - ALBERT CUTRINA RUBIO 08:43:15 1114

211 - 231 - MARC MASNOU RUBIó 08:43:32 1113

212 - 232 - SALVA PILES MARTIN 08:44:49 1241

213 - 233 - JOSé MARíA FERRER GIRóN 08:54:07 1026

214 - 234 - ALBERTO PLAZA GAMITO 08:54:12 1225

215 - 235 - JUSTO MARTIN SIMON 08:54:13 1073

216 - 236 - DANIEL JEREZ CEBALLOS 08:54:14 1034

217 - 237 - MARC SERRAT DIAZ 08:55:40 1005

218 - 238 - CARLES RAMOS SOLE 08:56:13 1003

219 - 239 - XAVI ALVAREZ ESTANY 08:58:20 1264

220 - 240 - ORIOL BAIXAS MORALES 09:02:52 1135

221 - 241 - JOHN FÉLIX BIGGS GÓMEZ 09:07:09 1158

222 - 242 - ADRIÀ SOLER ABIAN 09:07:28 1118

223 - 243 - ALBERT SOLER FREIXER 09:07:29 1035

224 - 244 - IñAKI ALONSO DE LOS SANTOS 09:08:08 1116

225 - 247 - JOAN BACH CODINA 09:12:28 1316

226 - 251 - IVAN JIMéNEZ RODà 09:17:06 1193

227 - 252 - FRANCISCO ANTONIO BARCELÓ MARTÍNEZ 09:17:30 1218

228 - 253 - DANIEL LOPEZ SANCHEZ 09:20:23 1130

229 - 254 - ALFONSO AGUILERA GARCIA 09:29:12 1110

230 - 255 - CéSAR ARRANZ FERNANDEZ 09:29:14 1112

231 - 256 - JORDI FIGULS GOMEZ 09:30:15 1183

232 - 257 - ADRIA SALANUEVA 09:40:50 1266

233 - 258 - DAVID COSTA SAMBLAS 09:41:46 1179

234 - 260 - FRANCESC XAVIER MARTíNEZ CAPABLO 09:44:11 1052

235 - 261 - JOSEP NAVARRO GARCíA 09:59:42 1076

236 - 262 - SANTIAGO RIOS AZUARA 10:00:37 1029

237 - 263 - MIGUEL ÁNGEL PéREZ BELBIS 10:16:00 1177

238 - 264 - JULIO BERRAL LOPEZ 10:31:55 1178

Dones

# - Posició P.C. - Participant Temps Dorsal

1 - 17 - ANGELS LLOBERA VICENS 05:41:06 1330

2 - 25 - CAROLINA RIUS HERNANDEZ 05:58:16 1308

3 - 28 - CLAUDIA BOSCH RODERO 06:00:18 1224

4 - 53 - SUSANA MORENO MORATONA 06:29:45 1151

5 - 54 - JELENA MALYSEVA -- 06:30:43 1300

6 - 68 - SANDRA MARIA VALENZUELA MENA 06:43:14 1195

7 - 74 - EROLA TORTADèS VERDAGUER 06:45:03 1002

8 - 77 - ELENA SANCHEZ GOMEZ 06:51:06 1315

9 - 79 - ROCIO RIOS ORTEGA 06:52:47 1043

10 - 82 - NEUS PEIRÓ PIFARRÉ 06:54:22 1311

11 - 84 - EVA MARIA TAPIA LUQUE 06:54:31 1239

12 - 92 - ALICIA GARRIDO SERRA 07:01:16 1313

13 - 112 - TERESA FORN MUNNE 07:10:58 1290

14 - 117 - SARA GARRE PELEGRINA 07:12:59 1031

15 - 172 - MARTA SEGURA PARRA 07:47:47 1077

16 - 190 - MARIBEL ALFARO NOGUERA 08:01:40 1234

17 - 199 - THAIS JORBA DELGADO 08:08:39 1096

18 - 213 - PAULA ALSINA ROSANAS 08:20:10 1070

19 - 245 - CRISTINA GARCIA PEREZ 09:09:05 1081

20 - 246 - ELISABET BUERA PORTA 09:09:06 1298

21 - 248 - ISABEL COVAS BERNAL 09:12:38 1317

22 - 249 - CARLA LóPEZ PéREZ 09:12:40 1074

23 - 250 - ANNA TRISTANY CODINA 09:14:43 1185

24 - 259 - MARTA ESCALE MORALES 09:41:51 1209

Publicitat